Tracking 28790 objects as of 19-Apr-2024
HD Live streaming from Space Station
objects crossing your sky now

THOR ABLESTAR DEB

Track THOR ABLESTAR DEB now!
10-day predictions


NORAD ID: 13511
Int'l Code: 1961-015KU
Perigee: 925.7 km
Apogee: 1,108.3 km
Inclination: 65.8 °
Period: 105.3 minutes
Semi major axis: 7387 km
RCS: 0.0083 m2 (small)
Launch date: June 29, 1961
Source: United States (US)
Launch site: AIR FORCE EASTERN TEST RANGE (AFETR)

Note: This is SATELLITE DEBRIS
Your satellite tracking list
Your tracking list is empty




NASA's NSSDC Master Catalog

Two Line Element Set (TLE):
1 13511U 61015KU  24110.08438965  .00000476  00000-0  62734-3 0  9997
2 13511  65.8438 346.4903 0123552 202.7546 308.1107 13.67146482183554
Source of the keplerian elements: AFSPC